Starlink 36258

operational
NORAD ID: 67104 Int'l Des: 2025-299 Owner: SPXS Country: US Constellation: starlink
LEOCIRCULAR

Über Starlink 36258

Beschreibung wird geladen...

Live-Position

3D-Globus wird geladen...

Nächste Überflüge

Höhenverlauf

Altitude vs Time

uPlot chart will show altitude changes over time

Zweizeiliger Elementsatz

1 67104C 25299C 25349.43659722 .00340400 00000+0 53916-3 0 3492
2 67104 43.0011 301.4547 0007209 269.4376 345.0121 16.02406740 15
Epoch: 15. Dez. 2025 • Age: 51 hours

Aktueller Status

Höhe 270.7 km
Geschwindigkeit 7.75 km/s
Subsatellitenpunkt -36.04°S, 108.22°E
Startdatum 15. Dez. 2025
Alter 1 days
Typ internet

Technische Details

Klassifizierung Payload
Masse 575.00 kg
Trockenmasse 530.00 kg
Gesamtmasse 575.00 kg
Länge 0.30 m
Durchmesser 4.10 m
Spannweite 29.00 m
Form Box + pan
Hersteller SPXS
Bus-Typ Starlink V2MO
Phasenstatus In Orbit
Besitzer/Staat SPXS/US

Große Konstellationen

Loading constellations...